| time (UTC) | temp C | wind direction | speed KPH | gust KPH | rain 1hr cm | rain 24hr cm | rain mn cm | humidity % | barometer mb |
| 20260504001803 | 7 | 195 | 11.3 | 17.7 | 0.08 | 0.15 | 0.15 | 90 | 1003.4 |
| 20260504000924 | 7 | 196 | 9.7 | 14.5 | 0.08 | 0.15 | 0.15 | 91 | 1003.4 |
| 20260504000003 | 7 | 205 | 9.7 | 16.1 | 0.08 | 0.15 | 0.15 | 91 | 1003.4 |
| 20260503235403 | 7 | 206 | 11.3 | 17.7 | 0.08 | 0.15 | 0.15 | 91 | 1003.6 |
| 20260503234503 | 7 | 206 | 9.7 | 16.1 | 0.08 | 0.13 | 0.13 | 91 | 1003.6 |
| 20260503233603 | 7 | 204 | 9.7 | 16.1 | 0.05 | 0.10 | 0.10 | 91 | 1003.6 |
| 20260503232703 | 7 | 219 | 8.0 | 14.5 | 0.03 | 0.08 | 0.08 | 90 | 1003.5 |
| 20260503231803 | 7 | 221 | 11.3 | 20.9 | 0.03 | 0.08 | 0.08 | 90 | 1003.6 |
| 20260503230903 | 7 | 214 | 14.5 | 22.5 | 0.03 | 0.10 | 0.08 | 89 | 1003.6 |
| 20260503230003 | 7 | 209 | 16.1 | 22.5 | 0.03 | 0.10 | 0.08 | 89 | 1003.6 |
| 20260503225403 | 7 | 207 | 16.1 | 24.1 | 0.03 | 0.10 | 0.08 | 89 | 1003.6 |
| 20260503224503 | 7 | 209 | 17.7 | 24.1 | 0.00 | 0.08 | 0.05 | 88 | 1003.6 |
| 20260503223603 | 7 | 216 | 17.7 | 29.0 | 0.00 | 0.08 | 0.05 | 88 | 1003.7 |
| 20260503222703 | 8 | 214 | 17.7 | 33.8 | 0.00 | 0.08 | 0.05 | 87 | 1003.7 |
| 20260503221803 | 8 | 215 | 17.7 | 33.8 | 0.00 | 0.08 | 0.05 | 86 | 1003.6 |
| 20260503220924 | 8 | 209 | 17.7 | 27.4 | 0.00 | 0.08 | 0.05 | 87 | 1003.6 |
| 20260503220024 | 7 | 204 | 16.1 | 30.6 | 0.00 | 0.08 | 0.05 | 88 | 1003.6 |
| 20260503215403 | 7 | 204 | 14.5 | 32.2 | 0.00 | 0.08 | 0.05 | 89 | 1003.5 |
| 20260503214503 | 7 | 203 | 16.1 | 25.7 | 0.00 | 0.08 | 0.05 | 89 | 1003.6 |
| 20260503213603 | 7 | 201 | 16.1 | 25.7 | 0.00 | 0.08 | 0.05 | 90 | 1003.6 |
| 20260503212703 | 7 | 199 | 16.1 | 27.4 | 0.00 | 0.08 | 0.05 | 90 | 1003.6 |
| 20260503211824 | 7 | 196 | 16.1 | 24.1 | 0.00 | 0.08 | 0.05 | 90 | 1003.7 |
| 20260503210903 | 6 | 199 | 16.1 | 25.7 | 0.00 | 0.08 | 0.05 | 90 | 1003.6 |
| 20260503210003 | 6 | 197 | 17.7 | 27.4 | 0.05 | 0.08 | 0.05 | 90 | 1003.7 |
| 20260503205403 | 6 | 196 | 19.3 | 30.6 | 0.05 | 0.08 | 0.05 | 90 | 1003.7 |
| 20260503204503 | 6 | 194 | 14.5 | 33.8 | 0.05 | 0.08 | 0.05 | 90 | 1003.8 |
| 20260503203603 | 6 | 202 | 11.3 | 20.9 | 0.05 | 0.08 | 0.05 | 90 | 1004.0 |
| 20260503202703 | 6 | 194 | 14.5 | 24.1 | 0.05 | 0.08 | 0.05 | 89 | 1004.1 |
| 20260503201803 | 6 | 195 | 16.1 | 27.4 | 0.05 | 0.08 | 0.05 | 88 | 1004.1 |
| 20260503200903 | 6 | 210 | 17.7 | 30.6 | 0.05 | 0.08 | 0.05 | 87 | 1004.3 |
| 20260503200003 | 7 | 239 | 16.1 | 27.4 | 0.00 | 0.03 | 0.00 | 84 | 1004.7 |
| 20260503195403 | 7 | 247 | 20.9 | 38.6 | 0.00 | 0.03 | 0.00 | 81 | 1004.8 |
| 20260503194503 | 8 | 250 | 17.7 | 33.8 | 0.00 | 0.03 | 0.00 | 73 | 1004.7 |
| 20260503193603 | 8 | 261 | 9.7 | 22.5 | 0.00 | 0.03 | 0.00 | 72 | 1004.4 |
| 20260503192703 | 8 | 263 | 14.5 | 24.1 | 0.00 | 0.03 | 0.00 | 70 | 1004.4 |
| 20260503191803 | 9 | 257 | 16.1 | 29.0 | 0.00 | 0.03 | 0.00 | 68 | 1004.6 |
| 20260503190903 | 8 | 246 | 12.9 | 37.0 | 0.00 | 0.03 | 0.00 | 69 | 1004.8 |
| 20260503190003 | 8 | 251 | 17.7 | 35.4 | 0.00 | 0.03 | 0.00 | 68 | 1005.0 |
| 20260503185424 | 9 | 242 | 17.7 | 30.6 | 0.00 | 0.03 | 0.00 | 65 | 1005.1 |
| 20260503184503 | 10 | 258 | 20.9 | 37.0 | 0.00 | 0.03 | 0.00 | 59 | 1005.0 |
| 20260503183603 | 11 | 215 | 16.1 | 35.4 | 0.00 | 0.03 | 0.00 | 56 | 1004.8 |
| 20260503182703 | 11 | 217 | 16.1 | 33.8 | 0.00 | 0.03 | 0.00 | 52 | 1004.5 |
| 20260503181803 | 11 | 257 | 17.7 | 37.0 | 0.00 | 0.03 | 0.00 | 53 | 1004.8 |
| 20260503180903 | 11 | 276 | 19.3 | 38.6 | 0.00 | 0.03 | 0.00 | 53 | 1004.9 |
| 20260503180003 | 11 | 233 | 14.5 | 38.6 | 0.00 | 0.03 | 0.00 | 51 | 1005.2 |
| 20260503175403 | 11 | 222 | 11.3 | 25.7 | 0.00 | 0.03 | 0.00 | 51 | 1005.1 |
| 20260503174503 | 11 | 205 | 16.1 | 25.7 | 0.00 | 0.03 | 0.00 | 52 | 1005.1 |
| 20260503173603 | 11 | 205 | 12.9 | 22.5 | 0.00 | 0.03 | 0.00 | 51 | 1005.5 |
| 20260503172703 | 11 | 215 | 12.9 | 29.0 | 0.00 | 0.03 | 0.00 | 50 | 1005.5 |
| 20260503171803 | 11 | 206 | 11.3 | 20.9 | 0.00 | 0.03 | 0.00 | 49 | 1005.7 |
| 20260503170903 | 10 | 214 | 11.3 | 20.9 | 0.00 | 0.03 | 0.00 | 48 | 1005.8 |
| 20260503150903 | 9 | 213 | 11.3 | 20.9 | 0.00 | 0.03 | 0.00 | 44 | 1006.9 |
| 20260503130903 | 5 | 160 | 3.2 | 8.0 | 0.00 | 0.05 | 0.00 | 60 | 1008.2 |
| 20260503080903 | 1 | 186 | 4.8 | 9.7 | 0.00 | 0.08 | 0.00 | 65 | 1009.2 |
| 20260503072703 | 1 | 170 | 3.2 | 9.7 | 0.00 | 0.08 | 0.00 | 62 | 1009.4 |
| 20260503071803 | 0 | 153 | 3.2 | 8.0 | 0.00 | 0.08 | 0.00 | 61 | 1009.4 |
| 20260503070924 | 0 | 148 | 3.2 | 4.8 | 0.00 | 0.08 | 0.00 | 61 | 1009.4 |
| 20260503054503 | 1 | 189 | 3.2 | 6.4 | 0.00 | 0.08 | 0.00 | 56 | 1010.0 |
| 20260503053603 | 1 | 195 | 3.2 | 4.8 | 0.00 | 0.08 | 0.00 | 56 | 1010.0 |
| 20260503052703 | 1 | 196 | 3.2 | 4.8 | 0.00 | 0.08 | 0.00 | 56 | 1010.0 |
| 20260503051803 | 1 | 201 | 3.2 | 4.8 | 0.00 | 0.08 | 0.00 | 56 | 1010.1 |
| 20260503050903 | 1 | 202 | 3.2 | 4.8 | 0.00 | 0.08 | 0.00 | 56 | 1010.2 |
| 20260503050003 | 1 | 202 | 1.6 | 6.4 | 0.00 | 0.08 | 0.00 | 56 | 1010.3 |
| 20260503045403 | 1 | 202 | 0.0 | 1.6 | 0.00 | 0.08 | 0.00 | 55 | 1010.3 |
| 20260503044503 | 1 | 0 | 0.0 | 0.0 | 0.00 | 0.08 | 0.00 | 56 | 1010.4 |
| 20260503043603 | 1 | 0 | 0.0 | 0.0 | 0.00 | 0.08 | 0.00 | 56 | 1010.5 |
| 20260503042703 | 1 | 0 | 0.0 | 0.0 | 0.00 | 0.08 | 0.00 | 55 | 1010.5 |
| 20260503041803 | 1 | 0 | 0.0 | 0.0 | 0.00 | 0.08 | 0.00 | 54 | 1010.5 |
| 20260503040903 | 1 | 0 | 0.0 | 0.0 | 0.00 | 0.08 | 0.00 | 55 | 1010.6 |
| 20260503040003 | 1 | 0 | 0.0 | 0.0 | 0.00 | 0.08 | 0.00 | 55 | 1010.6 |
| 20260503035403 | 1 | 0 | 0.0 | 0.0 | 0.00 | 0.08 | 0.08 | 55 | 1010.6 |
| 20260503034503 | 1 | 0 | 0.0 | 0.0 | 0.00 | 0.08 | 0.08 | 55 | 1010.7 |
| 20260503033603 | 1 | 0 | 0.0 | 0.0 | 0.00 | 0.08 | 0.08 | 54 | 1010.7 |
| 20260503032724 | 1 | 0 | 0.0 | 0.0 | 0.00 | 0.08 | 0.08 | 54 | 1010.8 |
| 20260503031803 | 1 | 0 | 0.0 | 0.0 | 0.00 | 0.08 | 0.08 | 54 | 1010.8 |
| 20260503030903 | 1 | 0 | 0.0 | 0.0 | 0.00 | 0.08 | 0.08 | 53 | 1010.9 |
| 20260503030003 | 1 | 203 | 0.0 | 3.2 | 0.00 | 0.08 | 0.08 | 53 | 1010.8 |
| 20260503025403 | 1 | 203 | 0.0 | 3.2 | 0.00 | 0.08 | 0.08 | 53 | 1011.0 |
| 20260503024503 | 1 | 203 | 1.6 | 3.2 | 0.00 | 0.08 | 0.08 | 52 | 1011.1 |
| 20260503023603 | 1 | 203 | 3.2 | 6.4 | 0.00 | 0.08 | 0.08 | 52 | 1011.1 |
| 20260503022703 | 2 | 207 | 3.2 | 9.7 | 0.00 | 0.08 | 0.08 | 50 | 1011.1 |
| 20260503021803 | 2 | 226 | 4.8 | 16.1 | 0.00 | 0.08 | 0.08 | 50 | 1011.2 |
| 20260503020903 | 2 | 275 | 3.2 | 14.5 | 0.00 | 0.08 | 0.08 | 50 | 1011.2 |
| 20260503020003 | 2 | 278 | 1.6 | 4.8 | 0.00 | 0.08 | 0.08 | 49 | 1011.0 |
| 20260503015403 | 2 | 279 | 1.6 | 6.4 | 0.00 | 0.08 | 0.08 | 49 | 1011.2 |
| 20260503014503 | 2 | 280 | 0.0 | 1.6 | 0.00 | 0.08 | 0.08 | 50 | 1011.1 |
| 20260503013603 | 2 | 280 | 1.6 | 4.8 | 0.00 | 0.08 | 0.08 | 49 | 1011.0 |
| 20260503012703 | 2 | 280 | 3.2 | 6.4 | 0.00 | 0.08 | 0.08 | 50 | 1011.0 |
| 20260503011803 | 2 | 273 | 4.8 | 9.7 | 0.00 | 0.08 | 0.08 | 50 | 1011.0 |
| 20260503010924 | 2 | 267 | 8.0 | 12.9 | 0.00 | 0.08 | 0.08 | 50 | 1010.8 |
| 20260503010003 | 2 | 269 | 9.7 | 17.7 | 0.00 | 0.08 | 0.08 | 49 | 1010.7 |
| 20260503005403 | 2 | 270 | 9.7 | 17.7 | 0.00 | 0.08 | 0.08 | 49 | 1010.8 |
| 20260503004503 | 2 | 274 | 6.4 | 12.9 | 0.00 | 0.08 | 0.08 | 47 | 1010.8 |
| 20260503003624 | 3 | 287 | 8.0 | 14.5 | 0.00 | 0.08 | 0.08 | 46 | 1010.8 |
| 20260503002703 | 3 | 292 | 9.7 | 19.3 | 0.00 | 0.08 | 0.08 | 45 | 1010.7 |